[[{"header":{"parameterUnit":"m.s-1","parameterCategory":1,"la1":30.2991,"la2":30.254,"lo1":-89.0895,"lo2":-89.0444,"dy":0.0017,"dx":0.0017,"nx":28,"ny":28,"refTime":"2024-04-28T21:00:00:Z","depth":0,"parameterNumber":2,"parameterNumberName":"U-component_of_WINDS"},"data":[0,0,0,0,0,0,0,0,0,0,0,0,0,0,0,0,0,0,0,0,0,0,0,0,0,0,0,0,0,0,0,0,0,0,0,0,0,0,0,0,0,0,0,0,0,0,0,0,0,0,0,0,0,0,0,0,0,0,-4.6524,-4.6526,0,-4.6674,-4.6676,-4.6677,-4.6691,-4.6689,-4.6688,-4.6686,-4.6837,-4.6842,-4.6848,0,0,0,0,0,0,0,0,0,0,0,0,0,-4.6248,-4.6253,-4.6524,-4.6526,-4.6528,-4.6674,-4.6676,-4.6678,-4.6691,-4.6689,-4.6687,-4.6685,-4.6835,-4.6842,-4.6848,0,0,0,0,0,0,0,0,0,0,0,0,0,-4.638,-4.6254,-4.6524,-4.6552,-4.6556,-4.6673,-4.6676,-4.6678,-4.6691,-4.6689,-4.6687,-4.6684,-4.6833,-4.6841,-4.6849,-4.6948,0,0,-4.6874,-4.6878,0,0,0,0,0,0,0,0,-4.6372,-4.639,-4.6546,-4.655,-4.6555,-4.6661,-4.6634,-4.6769,-4.6692,-4.664,-4.6686,-4.6683,-4.678,-4.6793,-4.6826,-4.6955,-4.6961,-4.6875,-4.688,-4.6884,-4.6886,0,0,0,0,0,0,0,-4.6363,-4.6383,-4.6583,-4.6548,-4.6554,-4.6557,-4.6573,-4.6659,-4.6722,-4.6644,-4.6646,-4.6663,-4.6782,-4.6818,-4.683,-4.6964,-4.6875,-4.6882,-4.6887,-4.6891,-4.718,-4.7183,0,0,0,0,0,0,-4.6349,-4.6376,-4.6579,-4.6588,-4.6456,-4.6564,-4.6582,-4.663,-4.6721,-4.6732,-4.6665,-4.6663,-4.6805,-4.682,-4.6835,-4.6955,-4.6884,-4.6891,-4.6896,-4.7177,-4.7181,-4.7184,0,0,0,0,0,0,-4.6343,-4.6367,-4.6573,-4.6482,-4.6509,-4.6571,-4.6625,-4.6634,-4.6669,-4.6737,-4.6747,-4.669,-4.6804,-4.6823,-4.692,-4.6961,-4.6895,-4.6903,-4.7174,-4.7178,-4.7182,-4.7198,0,0,0,0,0,0,-4.6335,-4.6364,-4.6403,-4.6483,-4.6513,-4.6655,-4.6627,-4.6638,-4.6684,-4.6683,-4.6763,-4.6774,-4.6803,-4.6907,-4.6928,-4.6971,-4.6909,-4.7171,-4.7176,-4.7181,-4.7194,-4.7202,-4.7209,0,0,0,0,0,-4.6325,-4.6401,-4.6405,-4.6429,-4.6563,-4.6658,-4.6675,-4.6708,-4.6687,-4.6726,-4.6769,-4.6771,-4.6954,-4.6917,-4.694,-4.6987,-4.7168,-4.7174,-4.718,-4.719,-4.72,-4.7208,0,0,0,0,0,0,-4.6323,-4.6412,-4.6417,-4.6522,-4.6582,-4.666,-4.671,-4.6718,-4.6785,-4.6781,-4.6818,-4.6836,-4.6931,-4.6969,-4.6926,-4.7086,-4.7059,-4.707,-4.7058,-4.7068,-4.7075,-4.7063,-4.6916,0,0,0,0,0,-4.6335,-4.6406,-4.6479,-4.6564,-4.6594,-4.6647,-4.6689,-4.671,-4.6773,-4.6799,-4.6849,-4.691,-4.6981,-4.7027,-4.7096,-4.72,-4.7217,-4.7243,-4.7251,-4.7257,-4.7265,-4.7322,-4.7334,-4.7204,-4.7204,-4.7204,0,0,-4.6361,-4.6418,-4.646,-4.6565,-4.6615,-4.6685,-4.6668,-4.6744,-4.6797,-4.681,-4.6904,-4.6943,-4.7014,-4.7114,-4.7161,-4.7148,-4.7305,-4.7264,-4.7269,-4.7274,-4.7329,-4.7342,-4.7352,-4.7208,-4.7207,-4.7207,0,0,-4.6442,-4.6493,-4.6569,-4.6619,-4.6694,-4.6729,-4.6747,-4.6824,-4.685,-4.6945,-4.6957,-4.702,-4.7142,-4.7191,-4.7232,-4.7334,-4.7338,-4.7355,-4.7394,-4.7449,-4.7459,-4.7468,-4.7503,-4.7515,-4.7364,-4.7364,-4.7364,0,-4.6464,-4.6572,-4.6607,-4.6683,-4.6729,-4.6745,-4.6822,-4.6868,-4.6962,-4.6993,-4.6978,-4.7131,-4.718,-4.7291,-4.7316,-4.735,-4.7371,-4.7345,-4.7455,-4.7464,-4.7473,-4.7507,-4.752,-4.7366,-4.7365,-4.7365,-4.7365,0,-4.6594,-4.6669,-4.6721,-4.6811,-4.6863,-4.6939,-4.6985,-4.7033,-4.705,-4.7085,-4.7181,-4.7241,-4.7322,-4.7351,-4.7367,-4.7464,-4.7454,-4.7447,-4.7419,-4.7487,-4.7519,-4.7532,-4.7368,-4.7367,-4.7367,-4.7366,0,0,-4.6678,-4.6787,-4.6806,-4.6846,-4.6931,-4.6989,-4.7065,-4.7145,-4.7185,-4.7249,-4.7314,-4.7417,-4.741,-4.7457,-4.7479,-4.7528,-4.7602,-4.7514,-4.7516,-4.7527,-4.7712,-4.7716,-4.773,-4.7607,-4.7609,-4.7611,-4.7706,0,-4.6768,-4.6905,-4.6939,-4.7055,-4.7124,-4.7141,-4.7208,-4.7266,-4.7302,-4.7365,-4.7404,-4.7476,-4.7463,-4.7491,-4.754,-4.7583,-4.764,-4.7577,-4.7665,-4.7668,-4.7645,-4.7747,-4.7752,-4.7838,-4.7718,-4.7721,-4.7722,0,-4.6891,-4.6958,-4.7081,-4.7156,-4.7186,-4.7246,-4.7321,-4.7382,-4.7448,-4.7471,-4.7524,-4.7541,-4.7621,-4.759,-4.77,-4.7656,-4.7695,-4.7721,-4.7725,-4.7733,-4.7698,-4.7756,-4.7866,-4.7878,-4.7743,-4.7741,-4.774,0,-4.6938,-4.7059,-4.7149,-4.7183,-4.7273,-4.7314,-4.7353,-4.7418,-4.7463,-4.753,-4.7559,-4.7634,-4.7674,-4.7731,-4.7768,-4.7743,-4.7874,-4.7847,-4.7894,-4.7893,-4.7919,-4.7917,-4.8035,-4.7947,-4.7947,-4.7947,-4.7946,0,-4.7034,-4.7108,-4.7171,-4.7225,-4.7309,-4.7348,-4.7429,-4.7469,-4.7526,-4.7588,-4.7608,-4.7665,-4.7712,-4.7775,-4.7805,-4.789,-4.7909,-4.7928,-4.7935,-4.7926,-4.7923,-4.795,-4.7944,-4.795,-4.7949,-4.7949,-4.7948,0,-4.71,-4.7145,-4.7243,-4.732,-4.7341,-4.7399,-4.7465,-4.7519,-4.7555,-4.7634,-4.7654,-4.7711,-4.7788,-4.7831,-4.7927,-4.7946,-4.8041,-4.8045,-4.8018,-4.8021,-4.8065,-4.8059,-4.8203,-4.8223,-4.8123,-4.8124,-4.8125,0,-4.7158,-4.7215,-4.7299,-4.7342,-4.7382,-4.7451,-4.7498,-4.7539,-4.7586,-4.7666,-4.771,-4.7788,-4.7851,-4.7972,-4.8022,-4.8095,-4.8101,-4.8146,-4.8112,-4.81,-4.8099,-4.8095,-4.81,-4.8151,-4.8152,-4.8153,-4.8154,0,-4.7255,-4.7274,-4.7341,-4.7416,-4.7471,-4.7532,-4.7593,-4.7627,-4.7677,-4.773,-4.7808,-4.7858,-4.7956,-4.8032,-4.8109,-4.8149,-4.8159,-4.8164,-4.8179,-4.8169,-4.815,-4.8159,-4.8033,-4.816,-4.816,-4.8159,-4.8159,-4.8158,-4.7318,-4.7369,-4.7436,-4.751,-4.7559,-4.7615,-4.7669,-4.7712,-4.7778,-4.7861,-4.7881,-4.7963,-4.8028,-4.8133,-4.8175,-4.8239,-4.8231,-4.8252,-4.8257,-4.8262,-4.8262,-4.8141,-4.8254,-4.8254,-4.8254,-4.8253,-4.8253,0,-4.7414,-4.7458,-4.7526,-4.7609,-4.7667,-4.7673,-4.774,-4.7788,-4.786,-4.792,-4.7982,-4.8072,-4.8146,-4.8202,-4.8278,-4.8318,-4.8325,-4.8337,-4.8333,-4.8342,-4.8266,-4.8245,-4.833,-4.833,-4.833,-4.833,-4.833,-4.833,-4.7472,-4.7559,-4.7586,-4.7698,-4.7741,-4.7822,-4.7859,-4.7911,-4.7958,-4.8058,-4.812,-4.8156,-4.8214,-4.8294,-4.8362,-4.8376,-4.8402,-4.8413,-4.8428,-4.8356,-4.8347,-4.8339,-4.832,-4.8419,-4.8419,-4.8498,-4.8499,-4.8499]},{"header":{"parameterUnit":"m.s-1","parameterCategory":1,"la1":30.2991,"la2":30.254,"lo1":-89.0895,"lo2":-89.0444,"dy":0.0017,"dx":0.0017,"nx":28,"ny":28,"refTime":"2024-04-28T21:00:00:Z","depth":0,"parameterNumber":3,"parameterNumberName":"V-component_of_WINDS"},"data":[0,0,0,0,0,0,0,0,0,0,0,0,0,0,0,0,0,0,0,0,0,0,0,0,0,0,0,0,0,0,0,0,0,0,0,0,0,0,0,0,0,0,0,0,0,0,0,0,0,0,0,0,0,0,0,0,0,0,5.2172,5.2172,0,5.221,5.221,5.2211,5.2144,5.2142,5.214,5.2138,5.2174,5.2177,5.218,0,0,0,0,0,0,0,0,0,0,0,0,0,5.2039,5.2042,5.2172,5.2172,5.2173,5.221,5.221,5.2211,5.2145,5.2142,5.2139,5.2137,5.2173,5.2177,5.218,0,0,0,0,0,0,0,0,0,0,0,0,0,5.2089,5.2042,5.2172,5.2144,5.2142,5.221,5.221,5.2211,5.2145,5.2142,5.2138,5.2135,5.2172,5.2176,5.2181,5.2276,0,0,5.2195,5.2197,0,0,0,0,0,0,0,0,5.2086,5.2094,5.2148,5.2146,5.2144,5.2169,5.2177,5.2233,5.2146,5.2144,5.2138,5.2134,5.2175,5.2179,5.2193,5.2278,5.228,5.2195,5.2198,5.22,5.2201,0,0,0,0,0,0,0,5.2083,5.2092,5.2187,5.2148,5.2146,5.2129,5.2132,5.2187,5.2178,5.2144,5.2139,5.2145,5.2173,5.2189,5.2194,5.228,5.2195,5.2199,5.2202,5.2204,5.2445,5.2448,0,0,0,0,0,0,5.2083,5.2089,5.2185,5.2188,5.2106,5.2134,5.2138,5.2164,5.2177,5.2176,5.2147,5.2141,5.2183,5.2189,5.2195,5.2307,5.22,5.2204,5.2207,5.2441,5.2446,5.245,0,0,0,0,0,0,5.208,5.2092,5.2184,5.2137,5.2148,5.214,5.217,5.2167,5.2183,5.218,5.2177,5.2166,5.2181,5.2188,5.2257,5.2308,5.2206,5.2211,5.2437,5.2443,5.2448,5.2533,0,0,0,0,0,0,5.2077,5.2092,5.2128,5.2139,5.215,5.2246,5.2173,5.217,5.2191,5.2183,5.2196,5.2195,5.2179,5.225,5.2261,5.2312,5.2214,5.2432,5.2439,5.2446,5.2526,5.2541,5.2554,0,0,0,0,0,5.2072,5.215,5.213,5.2142,5.2196,5.2249,5.2256,5.2236,5.2195,5.2232,5.223,5.2195,5.2301,5.2258,5.227,5.2323,5.2429,5.2437,5.2445,5.2519,5.2538,5.2554,0,0,0,0,0,0,5.2145,5.2151,5.2129,5.2213,5.2231,5.2238,5.2283,5.2256,5.2285,5.2277,5.225,5.2254,5.2327,5.2332,5.2284,5.2416,5.2358,5.2369,5.241,5.2428,5.2441,5.2439,5.2218,0,0,0,0,0,5.2171,5.2214,5.2217,5.2291,5.2301,5.2291,5.2313,5.2296,5.2314,5.2321,5.2324,5.2341,5.2378,5.2403,5.2437,5.2526,5.2528,5.2569,5.2583,5.2594,5.2604,5.2651,5.2669,5.2477,5.2477,5.2476,0,0,5.2225,5.2233,5.2262,5.2305,5.2317,5.2362,5.2298,5.2347,5.238,5.2328,5.2393,5.2396,5.2414,5.2493,5.2528,5.2499,5.2658,5.2605,5.2614,5.2617,5.2662,5.268,5.2696,5.2482,5.2481,5.248,0,0,5.2345,5.2357,5.2419,5.2433,5.2453,5.2445,5.2461,5.2472,5.2472,5.2537,5.2499,5.2537,5.2602,5.2616,5.2632,5.2759,5.2727,5.2771,5.2844,5.289,5.2905,5.2919,5.2964,5.298,5.278,5.2781,5.2781,0,5.2409,5.2476,5.2455,5.2508,5.2528,5.2484,5.2547,5.2561,5.259,5.2605,5.2572,5.2652,5.2661,5.2743,5.2774,5.2789,5.2805,5.2769,5.2905,5.2918,5.293,5.2973,5.299,5.2786,5.2785,5.2784,5.2784,0,5.2553,5.26,5.2648,5.2679,5.2705,5.2762,5.2749,5.2777,5.2759,5.2755,5.2822,5.2831,5.2866,5.2884,5.2866,5.2964,5.2945,5.291,5.2851,5.2954,5.2994,5.301,5.2793,5.2791,5.279,5.2788,0,0,5.272,5.2739,5.2757,5.2771,5.2789,5.2825,5.288,5.2916,5.294,5.2962,5.3008,5.3064,5.3031,5.3049,5.3032,5.3073,5.3173,5.3032,5.3032,5.3058,5.3281,5.3308,5.3328,5.3153,5.3156,5.3158,5.328,0,5.284,5.2937,5.292,5.3013,5.3056,5.3015,5.3064,5.308,5.3078,5.3114,5.3111,5.3151,5.3105,5.3116,5.3155,5.3153,5.3218,5.3144,5.3194,5.3196,5.3191,5.3348,5.3377,5.3491,5.3295,5.3298,5.33,0,5.2993,5.3022,5.312,5.3132,5.315,5.3194,5.3225,5.3259,5.3277,5.3273,5.3294,5.3269,5.3324,5.3265,5.334,5.329,5.331,5.3312,5.3316,5.332,5.3254,5.3356,5.3527,5.3544,5.3324,5.3322,5.332,0,5.3104,5.3168,5.3235,5.3248,5.3264,5.3296,5.3303,5.3318,5.3341,5.3368,5.3382,5.3415,5.3433,5.3459,5.3444,5.3402,5.3521,5.3461,5.3518,5.3519,5.3545,5.3543,5.3721,5.3558,5.3558,5.3558,5.3558,0,5.324,5.3302,5.3285,5.3327,5.3394,5.3374,5.3441,5.3444,5.3458,5.3498,5.3465,5.3503,5.3481,5.3518,5.3507,5.3571,5.3579,5.3577,5.3573,5.358,5.358,5.3592,5.3583,5.3562,5.3561,5.3561,5.356,0,5.3376,5.3367,5.3438,5.3448,5.3452,5.3501,5.3509,5.3547,5.3543,5.3595,5.3606,5.3599,5.3641,5.3629,5.3674,5.3666,5.3747,5.3733,5.3741,5.3738,5.3796,5.3791,5.3987,5.4012,5.3834,5.3835,5.3837,0,5.3463,5.351,5.3525,5.355,5.3561,5.3602,5.3625,5.3606,5.3632,5.3656,5.3691,5.373,5.376,5.3829,5.3828,5.3862,5.3848,5.3915,5.3853,5.3859,5.3849,5.3847,5.3851,5.3927,5.3929,5.3931,5.3932,0,5.3618,5.3612,5.3647,5.3681,5.371,5.3735,5.3757,5.378,5.3763,5.3793,5.3836,5.3859,5.3906,5.3945,5.3976,5.3983,5.3955,5.3952,5.3967,5.3974,5.3977,5.3976,5.3775,5.3947,5.3946,5.3945,5.3944,5.3943,5.3732,5.3772,5.3789,5.3829,5.3844,5.3866,5.3902,5.3903,5.3939,5.3976,5.3962,5.4012,5.4028,5.4067,5.4079,5.4117,5.4091,5.4113,5.4118,5.4124,5.4132,5.3972,5.4122,5.4122,5.4121,5.4121,5.4121,0,5.3885,5.3894,5.3932,5.3965,5.3996,5.3968,5.3991,5.4019,5.4063,5.4081,5.4112,5.4161,5.4199,5.4201,5.4237,5.4267,5.4255,5.4276,5.4274,5.4276,5.4152,5.4136,5.4286,5.4286,5.4286,5.4286,5.4285,5.4285,5.3969,5.4035,5.403,5.4103,5.4111,5.416,5.4176,5.4196,5.421,5.4267,5.4298,5.43,5.4311,5.4347,5.4381,5.438,5.4395,5.4422,5.4417,5.4301,5.4285,5.4269,5.4253,5.4425,5.4425,5.4537,5.4538,5.4539]}]]